Meath Environmental Platform

Observations for Trim Market St

Time AQI Temp °C Hum % Pres Pa CO μg/m³ H₂S μg/m³ NO μg/m³ NO₂ μg/m³ O₃ μg/m³ SO₂ μg/m³ PM1 μg/m³ PM2.5 μg/m³ PM10 μg/m³
Tuesday 7 July 2026
19:42 1 28.1 49 57,241 0 6.2 0 11.53 11.82 0 4.28 7.66 10.54
19:41 1 28.1 49 57,391 0 6.6 0 11.64 17.05 0 4.28 7.67 9.79
19:40 1 28.1 49 57,546 0 6.5 0 12.44 15.56 0 3.56 5.6 6.77
19:39 1 28.2 49 57,742 0 5.5 0 10.83 17.53 0 3.56 7.16 9.03
19:38 1 28.2 49 57,885 0 5.72 0 11.13 17.99 0 3.56 6.13 7.53
19:37 1 28.2 48 57,946 0 5.39 0 10.45 13.69 0 2.85 5.62 7.53
19:36 1 28.2 48 58,011 0 5.85 0 10.25 20.8 0 3.56 5.62 6.77
19:35 1 28.3 48 58,092 0 5.15 0 10.53 12.84 0 2.14 5.11 6.02
19:34 1 28.3 48 58,157 0 6.32 0 11.24 11.71 0 4.28 7.18 9.79
19:31 1 28.4 48 58,493 0 7.68 0 17.04 5.11 0 4.28 7.19 9.04
19:30 1 28.4 48 58,607 0 9.18 0 17.65 21.13 0 4.28 7.19 9.04
19:27 1 28.4 48 59,352 0 7.39 0 13.07 14.22 0 3.56 6.17 7.53
19:24 1 28.5 47 59,976 0 7.52 0 11.29 19.38 0 3.56 6.71 8.29
19:21 1 28.6 47 60,396 0 11.15 0 12.27 16.48 0 2.14 5.16 6
19:17 1 28.7 47 61,115 0 9.03 0 11.89 15.17 0 5.7 7.77 9.82
19:16 1 28.7 47 61,281 0 11.09 0 14.62 22.41 0 4.99 7.27 9.06
19:15 1 28.7 47 61,492 0 9.97 0 15.83 13.65 0 2.85 5.71 6.76
19:14 1 28.7 46 61,723 0 11.62 0 15.85 14.11 0 2.85 6.76 8.29
19:13 1 28.7 46 61,921 0 11.28 0 18.47 15.38 0 4.28 6.78 8.29
19:12 1 28.8 46 62,201 0 8.49 0 11.76 18.25 0 4.28 7.3 9.06